DW6455 Orivesi FI current weather conditions

sailwx.info

Wind from 350 at 3 knots gusting 5

Air temperature 0.6° C
Dewpoint -0.1° C

Last reported at 2017-Apr-25 23:07 UTC.
Time now 2017-Apr-26 00:10 UTC

Location: N 61°39' E 024°21'.
View on Google Maps.

See reports from other nearby stations

  
Tides and Currents Weather Stations Pressure Air Temp Water Temp Dewpoint Dewpoint Depression Visibility Wind Speed Wind Dir Waves Ship Positions
date/time (UTC)wind fromknots sea level pressurealtimeterstation pressurevisibilityair tempwater tempwave heightnotes
2017-Apr-25 23:07 350 3 gusting 5 0.6
2017-Apr-25 23:02 355 2 gusting 5 0.6
2017-Apr-25 22:57 333 2 gusting 5 0.6
2017-Apr-25 22:52 333 2 gusting 7 0.6
2017-Apr-25 22:47 355 2 gusting 7 0.6
2017-Apr-25 22:42 345 3 gusting 7 0.6
2017-Apr-25 22:37 345 3 gusting 7 0.6
2017-Apr-25 22:32 355 3 gusting 7 0.6
2017-Apr-25 22:27 346 4 gusting 7 0.6
2017-Apr-25 22:22 345 5 gusting 7 0.6
2017-Apr-25 22:17 346 4 gusting 6 0.6
2017-Apr-25 22:12 009 2 gusting 6 0.6
2017-Apr-25 22:07 013 3 gusting 6 0.6
2017-Apr-25 22:02 355 3 gusting 6 0.6
2017-Apr-25 21:57 345 3 gusting 5 0.6
2017-Apr-25 21:52 005 3 gusting 5 0.6
2017-Apr-25 21:47 355 3 gusting 5 0.6
2017-Apr-25 21:42 1.1
2017-Apr-25 21:37 1.1
2017-Apr-25 21:32 020 1 gusting 3 1.1
2017-Apr-25 21:27 028 1 gusting 3 1.1
2017-Apr-25 21:22 041 1 gusting 7 1.1
2017-Apr-25 21:17 045 1 gusting 7 1.7
2017-Apr-25 21:12 045 1 gusting 7 1.7
2017-Apr-25 21:07 057 2 gusting 8 1.7
2017-Apr-25 21:02 057 3 gusting 8 1.7
2017-Apr-25 20:57 053 3 gusting 8 2.2
2017-Apr-25 20:52 046 2 gusting 8 2.2
2017-Apr-25 20:47 042 4 gusting 8 2.2
2017-Apr-25 20:42 062 3 gusting 8 2.2
2017-Apr-25 20:37 081 2 gusting 9 2.2
2017-Apr-25 20:32 065 3 gusting 9 2.2
2017-Apr-25 20:27 078 4 gusting 9 2.2
2017-Apr-25 20:22 057 3 gusting 9 2.8
2017-Apr-25 20:17 049 3 gusting 6 2.8
2017-Apr-25 20:12 2.8
2017-Apr-25 20:07 063 3 gusting 8 2.8
2017-Apr-25 20:02 072 3 gusting 8 2.8
2017-Apr-25 19:57 071 3 gusting 8 2.8
2017-Apr-25 19:52 081 3 gusting 8 2.8
2017-Apr-25 19:47 073 3 gusting 6 2.8
2017-Apr-25 19:42 075 3 gusting 6 2.8
2017-Apr-25 19:37 083 2 gusting 6 2.8
2017-Apr-25 19:32 082 1 gusting 6 2.8
2017-Apr-25 19:27 084 1 gusting 6 2.8
2017-Apr-25 19:22 084 2 gusting 6 2.8
2017-Apr-25 19:17 065 2 gusting 6 2.8
2017-Apr-25 19:12 060 2 gusting 6 2.8
2017-Apr-25 19:07 089 1 gusting 7 2.8
2017-Apr-25 19:02 091 2 gusting 7 2.8
2017-Apr-25 18:57 109 2 gusting 7 2.8
2017-Apr-25 18:52 090 2 gusting 7 2.8
2017-Apr-25 18:47 148 2 gusting 8 2.8
2017-Apr-25 18:42 101 2 gusting 8 2.8
2017-Apr-25 18:37 085 2 gusting 7 2.8
2017-Apr-25 18:32 109 3 gusting 7 2.8
2017-Apr-25 18:27 108 4 gusting 7 2.8
2017-Apr-25 18:22 123 4 gusting 7 2.8
2017-Apr-25 18:17 097 3 gusting 12 2.8
2017-Apr-25 18:12 123 3 gusting 12 2.8
2017-Apr-25 18:07 103 4 gusting 13 2.8
2017-Apr-25 18:02 094 5 gusting 13 3.3
2017-Apr-25 17:57 128 5 gusting 13 3.3
2017-Apr-25 17:52 126 5 gusting 13 3.3
2017-Apr-25 17:47 124 6 gusting 12 3.3
2017-Apr-25 17:42 140 6 gusting 12 3.3
2017-Apr-25 17:37 124 6 gusting 11 3.3
2017-Apr-25 17:32 121 6 gusting 11 3.3
2017-Apr-25 17:27 119 6 gusting 11 3.3
2017-Apr-25 17:22 119 6 gusting 11 3.3
2017-Apr-25 17:17 101 6 gusting 10 3.3
2017-Apr-25 17:12 138 6 gusting 10 3.3
2017-Apr-25 17:07 111 6 gusting 14 3.3
2017-Apr-25 17:02 137 6 gusting 14 3.3
2017-Apr-25 16:57 123 6 gusting 14 3.3
2017-Apr-25 16:52 132 6 gusting 14 3.3
2017-Apr-25 16:47 109 6 gusting 10 3.3
2017-Apr-25 16:42 143 6 gusting 10 3.3
2017-Apr-25 16:37 132 6 gusting 10 3.3
2017-Apr-25 16:32 118 6 gusting 12 3.3
2017-Apr-25 16:27 109 6 gusting 12 3.3
2017-Apr-25 16:22 140 6 gusting 12 3.3
2017-Apr-25 16:17 134 6 gusting 10 3.3
2017-Apr-25 16:12 126 6 gusting 10 3.3
2017-Apr-25 16:07 138 6 gusting 10 3.3
2017-Apr-25 16:02 147 6 gusting 10 3.3
2017-Apr-25 15:57 145 5 gusting 12 3.3
2017-Apr-25 15:52 146 6 gusting 12 3.3
2017-Apr-25 15:47 160 6 gusting 12 3.3
2017-Apr-25 15:42 130 6 gusting 12 3.3
2017-Apr-25 15:37 124 6 gusting 9 3.3
2017-Apr-25 15:32 109 5 gusting 9 3.3
2017-Apr-25 15:27 123 4 gusting 9 3.3
2017-Apr-25 15:22 134 5 gusting 11 3.3
2017-Apr-25 15:17 113 6 gusting 11 3.3
2017-Apr-25 15:12 122 6 gusting 11 3.3
2017-Apr-25 15:07 150 6 gusting 10 3.3
2017-Apr-25 15:02 155 6 gusting 10 3.3
2017-Apr-25 14:57 103 6 gusting 10 3.3
2017-Apr-25 14:52 130 5 gusting 10 3.3
2017-Apr-25 14:47 142 6 gusting 13 3.3
2017-Apr-25 14:42 128 6 gusting 13 3.3
2017-Apr-25 14:37 105 6 gusting 16 3.3
2017-Apr-25 14:32 131 8 gusting 16 3.9
2017-Apr-25 14:27 123 8 gusting 16 3.9
2017-Apr-25 14:22 144 9 gusting 16 3.9
2017-Apr-25 14:17 149 11 gusting 18 3.9
2017-Apr-25 14:12 136 10 gusting 18 3.9
2017-Apr-25 14:07 127 11 gusting 21 3.9
2017-Apr-25 14:02 144 11 gusting 21 3.9
2017-Apr-25 13:57 143 12 gusting 21 4.4
2017-Apr-25 13:52 128 12 gusting 21 4.4
2017-Apr-25 13:47 154 12 gusting 18 4.4
2017-Apr-25 13:42 137 12 gusting 18 4.4
2017-Apr-25 13:37 137 11 gusting 16 4.4
2017-Apr-25 13:32 147 10 gusting 16 4.4
2017-Apr-25 13:27 140 11 gusting 16 4.4
2017-Apr-25 13:22 154 11 gusting 16 4.4
2017-Apr-25 13:17 136 11 gusting 20 4.4
2017-Apr-25 13:12 153 12 gusting 20 4.4
2017-Apr-25 13:07 178 13 gusting 18 4.4
2017-Apr-25 13:02 137 13 gusting 18 4.4
2017-Apr-25 12:57 136 12 gusting 18 4.4
2017-Apr-25 12:52 134 11 gusting 18 4.4
2017-Apr-25 12:47 115 12 gusting 22 4.4
2017-Apr-25 12:42 126 13 gusting 22 4.4
2017-Apr-25 12:37 128 13 gusting 20 4.4
2017-Apr-25 12:32 143 13 gusting 20 4.4
2017-Apr-25 12:27 164 13 gusting 20 4.4
2017-Apr-25 12:22 124 13 gusting 20 4.4
2017-Apr-25 12:17 136 13 gusting 18 4.4
2017-Apr-25 12:12 146 12 gusting 18 4.4
2017-Apr-25 12:07 139 10 gusting 19 4.4
2017-Apr-25 12:02 146 9 gusting 19 5.0
2017-Apr-25 11:57 152 9 gusting 19 5.0
2017-Apr-25 11:52 140 9 gusting 19 4.4
2017-Apr-25 11:47 141 12 gusting 18 4.4
2017-Apr-25 11:42 166 12 gusting 18 4.4
2017-Apr-25 11:37 153 11 gusting 17 4.4
2017-Apr-25 11:32 140 10 gusting 17 4.4
2017-Apr-25 11:27 130 10 gusting 17 4.4
2017-Apr-25 11:22 142 10 gusting 17 4.4
2017-Apr-25 11:17 136 8 gusting 15 3.9
2017-Apr-25 11:12 142 8 gusting 15 3.9
2017-Apr-25 11:07 167 8 gusting 16 3.3
2017-Apr-25 11:02 146 8 gusting 16 3.3
2017-Apr-25 10:57 132 9 gusting 16 3.3
2017-Apr-25 10:52 171 10 gusting 18 2.8
2017-Apr-25 10:47 167 10 gusting 18 2.8
2017-Apr-25 10:42 146 8 gusting 18 2.8
2017-Apr-25 10:37 139 9 gusting 18 2.8
2017-Apr-25 10:32 159 10 gusting 18 2.8
2017-Apr-25 10:27 139 10 gusting 18 2.8
2017-Apr-25 10:22 138 10 gusting 18 2.8
2017-Apr-25 10:17 124 10 gusting 19 2.8
2017-Apr-25 10:12 148 10 gusting 19 2.8
2017-Apr-25 10:07 140 12 gusting 19 2.2
2017-Apr-25 10:02 127 12 gusting 19 2.2
2017-Apr-25 09:57 135 12 gusting 17 1.7
2017-Apr-25 09:52 149 11 gusting 17 1.7
2017-Apr-25 09:47 134 11 gusting 17 1.7
2017-Apr-25 09:42 112 11 gusting 17 1.7
2017-Apr-25 09:37 136 10 gusting 19 1.7
2017-Apr-25 09:32 134 9 gusting 19 1.7
2017-Apr-25 09:27 137 9 gusting 19 1.7
2017-Apr-25 09:22 134 11 gusting 18 1.7
2017-Apr-25 09:17 139 10 gusting 18 1.7
2017-Apr-25 09:12 143 9 gusting 18 1.7
2017-Apr-25 09:07 150 9 gusting 14 1.1
2017-Apr-25 09:02 141 10 gusting 14 1.1
2017-Apr-25 08:57 131 10 gusting 14 1.1
2017-Apr-25 08:52 140 9 gusting 14 1.1
2017-Apr-25 08:47 119 9 gusting 18 1.1
2017-Apr-25 08:42 120 9 gusting 18 1.1
2017-Apr-25 08:37 122 9 gusting 16 1.1
2017-Apr-25 08:32 137 9 gusting 16 1.1
2017-Apr-25 08:27 138 8 gusting 16 1.1
2017-Apr-25 08:22 110 8 gusting 16 1.1
2017-Apr-25 08:17 144 8 gusting 15 0.6
2017-Apr-25 08:12 140 7 gusting 15 0.6
2017-Apr-25 08:07 117 8 gusting 19 1.1
2017-Apr-25 08:02 132 9 gusting 19 1.1
2017-Apr-25 07:57 135 9 gusting 19 1.1
2017-Apr-25 07:52 108 9 gusting 19 1.1
2017-Apr-25 07:47 115 11 gusting 21 1.1
2017-Apr-25 07:42 148 11 gusting 21 1.1
2017-Apr-25 07:37 122 11 gusting 19 1.7
2017-Apr-25 07:32 130 11 gusting 19 1.7
2017-Apr-25 07:27 115 11 gusting 19 1.7
2017-Apr-25 07:22 133 10 gusting 19 1.7
2017-Apr-25 07:17 130 11 gusting 19 1.7
2017-Apr-25 07:12 140 11 gusting 19 2.2
2017-Apr-25 07:07 141 11 gusting 18 2.2
2017-Apr-25 07:02 169 10 gusting 18 2.2
2017-Apr-25 06:57 128 9 gusting 18 2.2
2017-Apr-25 06:52 123 9 gusting 18 2.2
2017-Apr-25 06:47 131 10 gusting 20 2.8
2017-Apr-25 06:42 126 10 gusting 20 2.8
2017-Apr-25 06:37 109 11 gusting 19 2.8
2017-Apr-25 06:32 135 11 gusting 19 2.8
2017-Apr-25 06:27 111 10 gusting 19 2.8
2017-Apr-25 06:22 132 9 gusting 19 2.8
2017-Apr-25 06:17 144 9 gusting 15 2.8
2017-Apr-25 06:12 142 8 gusting 15 2.8
2017-Apr-25 06:07 119 8 gusting 15 2.8
2017-Apr-25 06:02 113 9 gusting 15 2.8
2017-Apr-25 05:57 124 9 gusting 15 2.8
2017-Apr-25 05:52 113 9 gusting 16 2.8
2017-Apr-25 05:47 082 9 gusting 16 2.8
2017-Apr-25 05:42 109 9 gusting 16 2.8
2017-Apr-25 05:37 118 9 gusting 15 2.8
2017-Apr-25 05:32 135 8 gusting 15 2.8
2017-Apr-25 05:27 113 8 gusting 15 2.2
2017-Apr-25 05:22 123 9 gusting 15 2.2
2017-Apr-25 05:17 135 8 gusting 15 1.7
2017-Apr-25 05:12 127 8 gusting 15 1.7
2017-Apr-25 05:07 116 8 gusting 15 1.7
2017-Apr-25 05:02 130 7 gusting 15 1.7
2017-Apr-25 04:57 090 7 gusting 13 1.7
2017-Apr-25 04:52 134 7 gusting 13 1.7
2017-Apr-25 04:47 133 8 gusting 13 1.7
2017-Apr-25 04:42 144 8 gusting 13 1.1
2017-Apr-25 04:37 105 7 gusting 13 1.1
2017-Apr-25 04:32 116 7 gusting 13 1.1
2017-Apr-25 04:27 128 7 gusting 13 1.1
2017-Apr-25 04:22 107 7 gusting 13 0.6
2017-Apr-25 04:17 120 7 gusting 13 0.6
2017-Apr-25 04:12 090 8 gusting 13 0.6
2017-Apr-25 04:07 117 8 gusting 12 0.6
2017-Apr-25 04:02 090 8 gusting 12 0.6
2017-Apr-25 03:57 119 8 gusting 12 0.6
2017-Apr-25 03:52 124 7 gusting 12 0.6
2017-Apr-25 03:47 114 7 gusting 13 -0.0
2017-Apr-25 03:42 130 6 gusting 13 -0.0
2017-Apr-25 03:37 142 6 gusting 13 -0.0
2017-Apr-25 03:32 140 6 gusting 11 -0.0
2017-Apr-25 03:27 108 6 gusting 11 -0.0
2017-Apr-25 03:22 098 6 gusting 11 -0.0
2017-Apr-25 03:17 119 6 gusting 12 -0.0
2017-Apr-25 03:12 113 6 gusting 12 -0.0
2017-Apr-25 03:07 144 6 gusting 12 -0.0
2017-Apr-25 03:02 094 6 gusting 12 -0.6
2017-Apr-25 02:57 131 6 gusting 10 -0.6
2017-Apr-25 02:52 102 6 gusting 10 -0.6
2017-Apr-25 02:47 134 5 gusting 8 -0.6
2017-Apr-25 02:42 108 5 gusting 8 -0.6
2017-Apr-25 02:37 136 4 gusting 6 -0.6
2017-Apr-25 02:32 121 3 gusting 6 -1.1
2017-Apr-25 02:27 138 2 gusting 6 -1.1
2017-Apr-25 02:22 077 1 gusting 6 -1.7
2017-Apr-25 02:17 134 0 gusting 3 -1.7
2017-Apr-25 02:12 076 0 gusting 3 -1.7
2017-Apr-25 02:07 074 0 gusting 3 -1.7
2017-Apr-25 02:02 081 1 gusting 3 -1.7
2017-Apr-25 01:57 081 1 gusting 3 -1.7
2017-Apr-25 01:52 113 0 gusting 4 -1.7
2017-Apr-25 01:47 121 0 gusting 4 -1.7
2017-Apr-25 01:42 125 0 gusting 5 -1.7
2017-Apr-25 01:37 134 1 gusting 5 -1.7
2017-Apr-25 01:32 128 1 gusting 4 -1.7
2017-Apr-25 01:27 139 1 gusting 4 -1.7
2017-Apr-25 01:22 121 0 gusting 3 -1.7
2017-Apr-25 01:17 101 0 gusting 3 -1.7
2017-Apr-25 01:12 111 0 gusting 6 -1.1
2017-Apr-25 01:07 132 0 gusting 6 -1.1
2017-Apr-25 01:02 116 0 gusting 6 -1.1
2017-Apr-25 00:57 105 0 gusting 3 -1.1
2017-Apr-25 00:52 109 0 gusting 3 -1.1
2017-Apr-25 00:47 115 0 gusting 6 -0.6
2017-Apr-25 00:42 119 1 gusting 6 -0.6
2017-Apr-25 00:37 121 1 gusting 3 -0.6
2017-Apr-25 00:32 125 2 gusting 3 -0.6
2017-Apr-25 00:27 151 1 gusting 3 -0.6
2017-Apr-25 00:22 128 0 gusting 3 -0.6
2017-Apr-25 00:17 068 0 gusting 4 -0.6
2017-Apr-25 00:12 068 0 gusting 4 -0.6
2017-Apr-25 00:07 068 0 gusting 1 -0.6
2017-Apr-25 00:02 067 0 gusting 1 -0.6
2017-Apr-24 23:57 067 -0.6
2017-Apr-24 23:52 066 -0.6
2017-Apr-24 23:47 067 -0.6
2017-Apr-24 23:42 067 -0.6
2017-Apr-24 23:37 067 0 gusting 3 -0.6
2017-Apr-24 23:32 066 0 gusting 3 -0.6
2017-Apr-24 23:27 071 1 gusting 3 -0.6
2017-Apr-24 23:22 068 0 gusting 3 -0.6
2017-Apr-24 23:17 067 0 gusting 3 -0.6
2017-Apr-24 23:12 067 0 gusting 3 -0.6
2017-Apr-24 23:07 066 0 gusting 3 -0.6
2017-Apr-24 23:02 067 1 gusting 3 -0.6
2017-Apr-24 22:57 065 0 gusting 2 -1.1
2017-Apr-24 22:52 128 0 gusting 2 -1.1
2017-Apr-24 22:47 020 0 gusting 3 -1.1
2017-Apr-24 22:42 020 0 gusting 3 -1.1
2017-Apr-24 22:37 020 0 gusting 3 -1.1
2017-Apr-24 22:32 020 1 gusting 3 -1.1
2017-Apr-24 22:27 020 1 gusting 1 -1.1
2017-Apr-24 22:22 018 1 gusting 1 -0.6
2017-Apr-24 22:17 018 0 gusting 1 -0.6
2017-Apr-24 22:12 085 0 gusting 1 -0.6
2017-Apr-24 22:07 089 0 gusting 4 -0.6
2017-Apr-24 22:02 096 -0.6
2017-Apr-24 21:57 096 1 gusting 4 -0.6
2017-Apr-24 21:52 159 1 gusting 4 -0.6
2017-Apr-24 21:47 153 0 gusting 2 -0.6
2017-Apr-24 21:42 138 0 gusting 2 -0.6
2017-Apr-24 21:37 094 -0.6
2017-Apr-24 21:32 092 0 gusting 2 -0.6
2017-Apr-24 21:27 092 0 gusting 1 -0.6
2017-Apr-24 21:22 148 0 gusting 1 -0.6
2017-Apr-24 21:17 049 -0.6
2017-Apr-24 21:12 049 -0.6
2017-Apr-24 21:07 049 -0.6
2017-Apr-24 21:02 049 -0.6
2017-Apr-24 20:57 049 -0.6
2017-Apr-24 20:52 049 0 gusting 1 -0.6
2017-Apr-24 20:47 096 -0.6
2017-Apr-24 20:42 102 -0.6
2017-Apr-24 20:37 101 -0.6
2017-Apr-24 20:32 104 0 gusting 4 -0.6
2017-Apr-24 20:27 107 0 gusting 2 -0.6
2017-Apr-24 20:22 042 0 gusting 2 -0.6
2017-Apr-24 20:17 042 0 gusting 2 -0.6
2017-Apr-24 20:12 042 -0.6
2017-Apr-24 20:07 042 0 gusting 1 -0.6
2017-Apr-24 20:02 043 -0.6
2017-Apr-24 19:57 076 -0.6
2017-Apr-24 19:52 076 -0.6
2017-Apr-24 19:47 076 -0.6
2017-Apr-24 19:42 076 -0.0
2017-Apr-24 19:37 088 0 gusting 4 -0.0
2017-Apr-24 19:32 088 0 gusting 4 -0.0
2017-Apr-24 19:27 092 0 gusting 4 -0.0
2017-Apr-24 19:22 103 0 gusting 4 -0.0
2017-Apr-24 19:17 239 0 gusting 1 -0.6
2017-Apr-24 19:12 239 -0.0
2017-Apr-24 19:07 239 -0.0
2017-Apr-24 19:02 239 -0.0
2017-Apr-24 18:57 239 -0.0
2017-Apr-24 18:52 239 -0.0
2017-Apr-24 18:47 239 0.6
2017-Apr-24 18:42 238 0.6
2017-Apr-24 18:37 239 1.1
2017-Apr-24 18:32 239 1.1
2017-Apr-24 18:27 239 1.7
2017-Apr-24 18:22 239 1.7
2017-Apr-24 18:17 239 0 gusting 2 1.7
2017-Apr-24 18:12 239 0 2.2
2017-Apr-24 18:07 240 2.2
2017-Apr-24 18:02 240 2.8
2017-Apr-24 17:57 240 2.8
2017-Apr-24 17:52 240 3.3
2017-Apr-24 17:47 240 3.3
2017-Apr-24 17:42 240 3.3
2017-Apr-24 17:37 240 3.9
2017-Apr-24 17:32 240 0 gusting 2 3.9
2017-Apr-24 17:27 240 3.9
2017-Apr-24 17:22 240 4.4
2017-Apr-24 17:17 240 4.4
2017-Apr-24 17:12 240 0 gusting 2 4.4
2017-Apr-24 17:07 240 0 gusting 5 4.4
2017-Apr-24 17:02 240 0 gusting 5 5.0
2017-Apr-24 16:57 240 0 gusting 5 5.0
2017-Apr-24 16:52 240 2 gusting 5 5.0
2017-Apr-24 16:47 214 1 gusting 5 5.6
2017-Apr-24 16:42 194 1 gusting 5 5.6
2017-Apr-24 16:37 221 1 gusting 4 5.6
2017-Apr-24 16:32 201 1 gusting 4 5.6
2017-Apr-24 16:27 183 1 gusting 4 5.6
2017-Apr-24 16:22 185 1 gusting 4 5.6
2017-Apr-24 16:17 220 1 gusting 5 5.6
2017-Apr-24 16:12 220 1 gusting 5 6.1
2017-Apr-24 16:07 205 0 gusting 5 5.6
2017-Apr-24 16:02 182 0 gusting 6 5.6
2017-Apr-24 15:57 182 1 gusting 6 5.6
2017-Apr-24 15:52 148 2 gusting 6 5.6
2017-Apr-24 15:47 163 3 gusting 7 5.6
2017-Apr-24 15:42 175 2 gusting 7 6.1
2017-Apr-24 15:37 167 3 gusting 7 6.1
2017-Apr-24 15:32 171 4 gusting 8 6.1
2017-Apr-24 15:27 156 4 gusting 8 6.7
2017-Apr-24 15:22 161 3 gusting 8 6.7
2017-Apr-24 15:17 196 3 gusting 6 6.7
2017-Apr-24 15:12 169 3 gusting 6 6.7
2017-Apr-24 15:07 161 3 gusting 6 6.7
2017-Apr-24 15:02 189 2 gusting 6 6.7
2017-Apr-24 14:57 223 2 gusting 7 6.7
2017-Apr-24 14:52 222 1 gusting 7 6.7
2017-Apr-24 14:47 238 2 gusting 9 7.2
2017-Apr-24 14:42 222 3 gusting 9 7.2
2017-Apr-24 14:37 270 4 gusting 9 7.2
2017-Apr-24 14:32 201 4 gusting 9 7.2
2017-Apr-24 14:27 213 3 gusting 9 7.8
2017-Apr-24 14:22 204 3 gusting 9 7.8
2017-Apr-24 14:17 240 3 gusting 7 7.8
2017-Apr-24 14:12 213 3 gusting 7 7.8
2017-Apr-24 14:07 212 2 gusting 9 7.8
2017-Apr-24 14:02 203 2 gusting 9 7.8
2017-Apr-24 13:57 179 3 gusting 9 7.8
2017-Apr-24 13:52 275 3 gusting 11 7.8
2017-Apr-24 13:47 215 4 gusting 11 7.8
2017-Apr-24 13:42 285 4 gusting 11 7.8
2017-Apr-24 13:37 269 5 gusting 11 7.8
2017-Apr-24 13:32 219 5 gusting 11 7.8
2017-Apr-24 13:27 271 3 gusting 11 8.3
2017-Apr-24 13:22 230 4 gusting 11 8.3
2017-Apr-24 13:17 225 5 gusting 11 8.3
2017-Apr-24 13:12 205 4 gusting 11 8.3
2017-Apr-24 13:07 185 2 gusting 11 8.3
2017-Apr-24 13:02 195 3 gusting 11 8.3
2017-Apr-24 12:57 213 4 gusting 11 8.3
2017-Apr-24 12:52 198 5 gusting 11 8.3
2017-Apr-24 12:47 220 4 gusting 10 8.3
2017-Apr-24 12:42 238 4 gusting 10 8.3
2017-Apr-24 12:37 256 5 gusting 10 8.3
2017-Apr-24 12:32 194 5 gusting 10 8.3
2017-Apr-24 12:27 213 4 gusting 10 7.8
2017-Apr-24 12:22 220 3 gusting 10 7.8
2017-Apr-24 12:17 223 4 gusting 9 7.2
2017-Apr-24 12:12 198 5 gusting 9 6.7
2017-Apr-24 12:07 196 5 gusting 10 6.7
2017-Apr-24 12:02 169 6 gusting 10 6.7
2017-Apr-24 11:57 163 4 gusting 10 7.2
2017-Apr-24 11:52 168 4 gusting 9 7.2
2017-Apr-24 11:47 149 6 gusting 9 6.7
2017-Apr-24 11:42 150 6 gusting 9 6.7
2017-Apr-24 11:37 178 4 gusting 9 6.7
2017-Apr-24 11:32 152 4 gusting 9 6.7
2017-Apr-24 11:27 145 5 gusting 10 6.7
2017-Apr-24 11:22 144 5 gusting 10 6.7
2017-Apr-24 11:17 171 6 gusting 10 6.7
2017-Apr-24 11:12 169 6 gusting 7 7.2
2017-Apr-24 11:07 158 5 gusting 7 7.2
2017-Apr-24 11:02 155 5 gusting 7 6.7
2017-Apr-24 10:57 142 6 gusting 8 6.7
2017-Apr-24 10:52 136 5 gusting 8 6.7
2017-Apr-24 10:47 146 4 gusting 8 6.7
2017-Apr-24 10:42 164 4 gusting 8 6.7
2017-Apr-24 10:37 165 4 gusting 8 6.7
2017-Apr-24 10:32 177 4 gusting 8 6.1
2017-Apr-24 10:27 181 4 gusting 7 6.1
2017-Apr-24 10:22 196 4 gusting 7 5.6
2017-Apr-24 10:17 158 4 gusting 7 5.6
2017-Apr-24 10:12 169 4 gusting 6 5.6
2017-Apr-24 10:07 155 5 gusting 6 5.6
2017-Apr-24 10:02 179 3 gusting 6 5.6
2017-Apr-24 09:57 181 2 gusting 7 5.6
2017-Apr-24 09:52 193 4 gusting 7 5.6
2017-Apr-24 09:47 157 4 gusting 7 5.6
2017-Apr-24 09:42 156 4 gusting 7 5.6
2017-Apr-24 09:37 162 3 gusting 8 5.6
2017-Apr-24 09:32 160 2 gusting 8 5.6
2017-Apr-24 09:27 165 2 gusting 8 5.6
2017-Apr-24 09:22 208 3 gusting 8 5.6
2017-Apr-24 09:17 201 4 gusting 8 6.1
2017-Apr-24 09:12 179 4 gusting 8 6.7
2017-Apr-24 09:07 219 4 gusting 9 6.7
2017-Apr-24 09:02 207 4 gusting 9 6.7
2017-Apr-24 08:57 209 4 gusting 9 6.7
2017-Apr-24 08:52 201 4 gusting 8 6.1
2017-Apr-24 08:47 194 3 gusting 8 6.1
2017-Apr-24 08:42 170 3 gusting 8 6.1
2017-Apr-24 08:37 252 4 gusting 8 5.6
2017-Apr-24 08:32 219 4 gusting 8 5.6
2017-Apr-24 08:27 207 4 gusting 8 5.6
2017-Apr-24 08:22 198 4 gusting 8 5.6
2017-Apr-24 08:17 167 4 gusting 8 5.6
2017-Apr-24 08:12 196 4 gusting 7 5.6
2017-Apr-24 08:07 220 4 gusting 7 5.6
2017-Apr-24 08:02 227 5 gusting 7 5.6
2017-Apr-24 07:57 200 3 gusting 6 5.6
2017-Apr-24 07:52 196 2 gusting 6 5.6
2017-Apr-24 07:47 227 2 gusting 10 5.0
2017-Apr-24 07:42 221 3 gusting 10 4.4
2017-Apr-24 07:37 206 4 gusting 10 4.4
2017-Apr-24 07:32 236 4 gusting 9 4.4
2017-Apr-24 07:27 223 2 gusting 9 4.4
2017-Apr-24 07:22 229 3 gusting 9 5.0
2017-Apr-24 07:17 243 4 gusting 10 5.0
2017-Apr-24 07:12 212 4 gusting 10 5.0
2017-Apr-24 07:07 225 4 gusting 11 5.6
2017-Apr-24 07:02 217 6 gusting 11 5.6
2017-Apr-24 06:57 215 6 gusting 11 6.1
2017-Apr-24 06:52 224 4 gusting 9 6.1
2017-Apr-24 06:47 215 3 gusting 9 5.6
2017-Apr-24 06:42 213 3 gusting 9 5.6
2017-Apr-24 06:37 192 4 gusting 6 5.6
2017-Apr-24 06:32 202 3 gusting 6 5.6
2017-Apr-24 06:27 179 3 gusting 8 5.0
2017-Apr-24 06:22 202 3 gusting 8 5.0
2017-Apr-24 06:17 200 3 gusting 8 4.4
2017-Apr-24 06:12 196 3 gusting 6 4.4
2017-Apr-24 06:07 178 3 gusting 6 4.4
2017-Apr-24 06:02 194 2 gusting 6 5.0
2017-Apr-24 05:57 162 2 gusting 8 5.0
2017-Apr-24 05:52 213 3 gusting 8 5.0
2017-Apr-24 05:47 226 4 gusting 8 5.6
2017-Apr-24 05:42 189 4 gusting 8 5.6
2017-Apr-24 05:37 202 4 gusting 8 5.6
2017-Apr-24 05:32 201 3 gusting 4 5.0
2017-Apr-24 05:27 179 2 gusting 4 4.4
2017-Apr-24 05:22 194 1 gusting 4 4.4
2017-Apr-24 05:17 158 1 gusting 5 3.9
2017-Apr-24 05:12 176 2 gusting 5 3.3
2017-Apr-24 05:07 180 2 gusting 6 3.3
2017-Apr-24 05:02 165 2 gusting 6 2.8
2017-Apr-24 04:57 175 2 gusting 6 2.8
2017-Apr-24 04:52 159 2 gusting 4 2.2
2017-Apr-24 04:47 182 2 gusting 4 2.2
2017-Apr-24 04:42 157 1 gusting 4 1.7
2017-Apr-24 04:37 199 1 gusting 3 1.1
2017-Apr-24 04:32 196 0 gusting 3 0.6
2017-Apr-24 04:27 298 0 gusting 3 0.6
2017-Apr-24 04:22 298 0 gusting 0 -0.0
2017-Apr-24 04:17 299 0 gusting 0 -0.6
2017-Apr-24 04:12 299 -1.1
2017-Apr-24 04:07 299 -1.1
2017-Apr-24 04:02 298 -1.7
2017-Apr-24 03:57 298 -1.7
2017-Apr-24 03:52 298 -1.7
2017-Apr-24 03:47 298 -2.2
2017-Apr-24 03:42 298 -2.2
2017-Apr-24 03:37 298 -2.8
2017-Apr-24 03:32 298 -2.8
2017-Apr-24 03:27 298 -2.8
2017-Apr-24 03:22 298 -2.8
2017-Apr-24 03:17 298 -3.3
2017-Apr-24 03:12 299 -3.3
2017-Apr-24 03:07 298 -2.8
2017-Apr-24 03:02 298 -2.8
2017-Apr-24 02:57 299 -2.8
2017-Apr-24 02:52 299 -2.8
2017-Apr-24 02:47 299 -2.8
2017-Apr-24 02:42 298 -2.8
2017-Apr-24 02:37 299 -2.8
2017-Apr-24 02:32 299 -2.8
2017-Apr-24 02:27 298 -2.8
2017-Apr-24 02:22 298 -2.8
2017-Apr-24 02:17 298 -2.8
2017-Apr-24 02:12 298 -2.8
2017-Apr-24 02:07 299 -2.2
2017-Apr-24 02:02 299 -2.2
2017-Apr-24 01:57 299 -2.8
2017-Apr-24 01:52 298 -2.8
2017-Apr-24 01:47 298 -2.2
2017-Apr-24 01:42 299 -2.2
2017-Apr-24 01:37 298 -2.2
2017-Apr-24 01:32 298 -2.2
2017-Apr-24 01:27 299 -2.2
2017-Apr-24 01:22 298 -2.2
2017-Apr-24 01:17 299 -2.2
2017-Apr-24 01:12 298 -2.2
2017-Apr-24 01:07 298 -2.2
2017-Apr-24 01:02 298 -2.2
2017-Apr-24 00:57 298 -2.2
2017-Apr-24 00:52 298 -2.2
2017-Apr-24 00:47 299 -2.2
2017-Apr-24 00:42 299 -2.2
2017-Apr-24 00:37 298 -2.2
2017-Apr-24 00:32 298 0 gusting 1 -2.2
2017-Apr-24 00:27 298 0 gusting 1 -2.2
2017-Apr-24 00:22 298 0 gusting 1 -2.2
2017-Apr-24 00:17 298 -2.2
2017-Apr-24 00:12 299 -1.7
2017-Apr-24 00:07 299 -1.7
2017-Apr-24 00:02 298 -1.7